User: anonymous   Login
Location: ActonStarParty
(42.4766°N, 71.4538°W)
Time: 01:51:04
(UTC-04:00)
Language:

Cosmos 1300 - Orbit

View from above orbital plane
View from above orbital plane
View from above satellite
View from above satellite

Ground track
Ground track

The orbit data is extracted from the following two-line orbital elements,

1 12785U 81082A   15245.78811634 +.00001364 +00000-0 +71739-4 0  9992
2 12785 082.5077 358.4732 0001795 044.2018 068.7522 15.14874016852616
Epoch (UTC): 02 September 2015 18:54:53
Eccentricity: 0.0001795
inclination: 82.5077°
perigee height: 520 km
apogee height: 522 km
right ascension of ascending node: 358.4732°
argument of perigee: 44.2018°
revolutions per day: 15.14874016
mean anomaly at epoch: 68.7522°
orbit number at epoch: 85261

The dashed part of the orbit path shows where the satellite is in the earth's shadow,  

DLR